This is the latest recevied weather packets stored in our database for station/object EA1IDU-11. If no packets are shown the sender has not sent any weather packets the latest 10 day(s).
| Time | Temp. | Humidity | Pressure | Rain* | Wind** | Luminosity | Snow |
|---|---|---|---|---|---|---|---|
| 1777822971 | 17.78° C | 45% | 1020 hPa | - | - | - | - |
| 1777822071 | 20.56° C | 43% | 1020.4 hPa | - | - | - | - |
| 1777821171 | 21.67° C | 43% | 1019.7 hPa | - | - | - | - |
| 1777820271 | 22.78° C | 43% | 1019.9 hPa | - | - | - | - |
| 1777819371 | 22.78° C | 43% | 1020 hPa | - | - | - | - |
| 1777818470 | 22.78° C | 43% | 1020.1 hPa | - | - | - | - |
| 1777817570 | 22.78° C | 44% | 1020.3 hPa | - | - | - | - |
| 1777816670 | 23.33° C | 44% | 1020.4 hPa | - | - | - | - |
| 1777815770 | 24.44° C | 45% | 1020.5 hPa | - | - | - | - |
| 1777814870 | 25.56° C | 46% | 1020.5 hPa | - | - | - | - |
| 1777813970 | 25° C | 48% | 1020.5 hPa | - | - | - | - |
| 1777813070 | 25° C | 49% | 1020.7 hPa | - | - | - | - |
| 1777812170 | 25° C | 51% | 1020.8 hPa | - | - | - | - |
| 1777811270 | 24.44° C | 52% | 1021.1 hPa | - | - | - | - |
| 1777810370 | 23.89° C | 53% | 1021.2 hPa | - | - | - | - |
| 1777809469 | 23.33° C | 54% | 1021.4 hPa | - | - | - | - |
| 1777808569 | 22.78° C | 55% | 1021.7 hPa | - | - | - | - |
| 1777807669 | 22.22° C | 56% | 1021.9 hPa | - | - | - | - |
| 1777806769 | 21.11° C | 57% | 1022.2 hPa | - | - | - | - |
| 1777805869 | 20° C | 58% | 1022.3 hPa | - | - | - | - |
| 1777804969 | 19.44° C | 58% | 1022.4 hPa | - | - | - | - |
| 1777804069 | 18.89° C | 58% | 1022.5 hPa | - | - | - | - |
| 1777803169 | 17.78° C | 58% | 1022.5 hPa | - | - | - | - |
| 1777802269 | 17.22° C | 59% | 1022.5 hPa | - | - | - | - |
| 1777801369 | 16.67° C | 59% | 1022.3 hPa | - | - | - | - |
* Rain since midnight (hover to see other rain measurements)
** Current wind speed in m/s (hover to see current wind gust speed)